Location: Broekland
(52.3610°N, 6.2005°E)
Time: 00:02:15
(UTC+00:00)

Cosmos 1743 Rocket - Pass Details

Date: 19 May 2025
Orbit: 599 x 626 km, 82.6° (Epoch: 15 June)

Event Time Altitude Azimuth Distance (km) Brightness Sun altitude
Rises 23:19:25 0° 347° (NNW) 2,925 8.7 -17.6°
Reaches altitude 10° 23:21:41 10° 345° (NNW) 2,012 7.4 -17.6°
Maximum altitude 23:26:06 68° 263° (W) 677 3.7 -17.6°
Enters shadow 23:27:48 36° 192° (SSW) 993 4.1 -17.6°
